Retour au catalogue

COSMOS 1275 DEB

ActifPO
NORAD 17626·DEBRIS·🇷🇺 Russia

Lancé Jun 4, 1981 depuis Plesetsk Cosmodrome

Loading…

Prochains Passages (prochaines 24 heures)

TLE

FraisSource: Space-Track

Époque: Sep 11, 2026, 14:08 UTC

1 17626U 81053KV  26254.58898421  .00000460  00000-0  51875-3 0  9992
2 17626  82.8632  90.1747 0140916  22.3874  41.3819 13.64567046 51181

Suivez COSMOS 1275 DEB en temps réel avec AllMySat

Download on the App Store